Time,TemperatureF,DewpointF,PressureIn,WindDirection,WindDirectionDegrees,WindSpeedMPH,WindSpeedGustMPH,Humidity,HourlyPrecipIn,Conditions,Clouds,dailyrainin,SoftwareType,DateUTC
2013-02-02 04:08:00,11.7,-99.9,29.94,North,-999,0.0,0.0,-999,0.00,,,-99.99,FreeWX 2.04,2013-02-02 09:08:00,
2013-02-02 04:10:00,11.7,-99.9,29.94,North,-999,0.0,0.0,-999,0.00,,,-99.99,FreeWX 2.04,2013-02-02 09:10:00,
2013-02-02 07:31:00,10.4,-99.9,29.91,North,-999,0.0,0.0,-999,0.00,,,-99.99,FreeWX 2.04,2013-02-02 12:31:00,
2013-02-02 07:36:00,10.4,-99.9,29.94,North,-999,0.0,0.0,-999,0.00,,,-99.99,FreeWX 2.04,2013-02-02 12:36:00,
2013-02-02 07:41:00,10.4,-99.9,29.94,North,-999,0.0,2.7,-999,0.00,,,-99.99,FreeWX 2.04,2013-02-02 12:41:00,
2013-02-02 07:46:00,10.6,-99.9,29.94,North,-999,0.0,3.1,-999,0.00,,,-99.99,FreeWX 2.04,2013-02-02 12:46:00,
2013-02-02 07:51:00,10.6,-99.9,29.94,North,-999,0.0,0.0,-999,0.00,,,-99.99,FreeWX 2.04,2013-02-02 12:51:00,
2013-02-02 07:56:00,10.6,-99.9,29.94,North,-999,0.0,0.0,-999,0.00,,,-99.99,FreeWX 2.04,2013-02-02 12:56:00,
2013-02-02 08:01:00,10.6,-99.9,29.94,North,-999,0.0,4.9,-999,0.00,,,-99.99,FreeWX 2.04,2013-02-02 13:01:00,
2013-02-02 08:06:00,10.8,-99.9,29.94,North,-999,0.0,0.0,-999,0.00,,,-99.99,FreeWX 2.04,2013-02-02 13:06:00,
2013-02-02 08:11:00,10.8,-99.9,29.94,North,-999,0.0,0.0,-999,0.00,,,-99.99,FreeWX 2.04,2013-02-02 13:11:00,
2013-02-02 08:16:00,10.8,-99.9,29.94,North,-999,0.0,3.6,-999,0.00,,,-99.99,FreeWX 2.04,2013-02-02 13:16:00,
2013-02-02 08:21:00,10.8,-99.9,29.91,North,-999,0.0,0.0,-999,0.00,,,-99.99,FreeWX 2.04,2013-02-02 13:21:00,
2013-02-02 08:26:00,10.9,-99.9,29.91,North,-999,0.0,0.0,-999,0.00,,,-99.99,FreeWX 2.04,2013-02-02 13:26:00,
2013-02-02 08:31:00,11.1,-99.9,29.91,North,-999,0.0,0.0,-999,0.00,,,-99.99,FreeWX 2.04,2013-02-02 13:31:00,
2013-02-02 08:36:00,11.1,-99.9,29.91,North,-999,0.0,3.6,-999,0.00,,,-99.99,FreeWX 2.04,2013-02-02 13:36:00,
2013-02-02 08:41:00,11.1,-99.9,29.91,North,-999,0.0,0.0,-999,0.00,,,-99.99,FreeWX 2.04,2013-02-02 13:41:00,
2013-02-02 08:46:00,11.5,-99.9,29.91,North,-999,0.0,3.6,-999,0.00,,,-99.99,FreeWX 2.04,2013-02-02 13:46:00,
2013-02-02 08:51:00,11.7,-99.9,29.94,North,-999,0.0,4.0,-999,0.00,,,-99.99,FreeWX 2.04,2013-02-02 13:51:00,
2013-02-02 08:56:00,11.7,-99.9,29.94,North,-999,0.0,0.0,-999,0.00,,,-99.99,FreeWX 2.04,2013-02-02 13:56:00,
2013-02-02 09:01:00,12.0,-99.9,29.94,North,-999,0.0,0.0,-999,0.00,,,-99.99,FreeWX 2.04,2013-02-02 14:01:00,
2013-02-02 09:06:00,12.0,-99.9,29.91,North,-999,0.0,0.0,-999,0.00,,,-99.99,FreeWX 2.04,2013-02-02 14:06:00,
2013-02-02 09:11:00,12.4,-99.9,29.91,North,-999,0.0,0.0,-999,0.00,,,-99.99,FreeWX 2.04,2013-02-02 14:11:00,
2013-02-02 09:16:00,12.4,-99.9,29.91,North,-999,0.0,5.4,-999,0.00,,,-99.99,FreeWX 2.04,2013-02-02 14:16:00,
2013-02-02 09:21:00,12.6,-99.9,29.94,North,-999,0.0,5.4,-999,0.00,,,-99.99,FreeWX 2.04,2013-02-02 14:21:00,
2013-02-02 09:26:00,12.6,-99.9,29.94,North,-999,0.0,2.7,-999,0.00,,,-99.99,FreeWX 2.04,2013-02-02 14:26:00,
2013-02-02 09:31:00,12.9,-99.9,29.94,North,-999,0.0,3.1,-999,0.00,,,-99.99,FreeWX 2.04,2013-02-02 14:31:00,
2013-02-02 09:36:00,13.3,-99.9,29.91,North,-999,0.0,0.0,-999,0.00,,,-99.99,FreeWX 2.04,2013-02-02 14:36:00,
2013-02-02 09:41:00,13.5,-99.9,29.91,North,-999,0.0,0.0,-999,0.00,,,-99.99,FreeWX 2.04,2013-02-02 14:41:00,
2013-02-02 09:46:00,13.5,-99.9,29.91,North,-999,0.0,4.0,-999,0.00,,,-99.99,FreeWX 2.04,2013-02-02 14:46:00,
2013-02-02 09:51:00,13.6,-99.9,29.91,North,-999,0.0,6.9,-999,0.00,,,-99.99,FreeWX 2.04,2013-02-02 14:51:00,
2013-02-02 09:56:00,14.2,-5.6,29.91,North,-999,0.0,0.0,40,0.00,,,-99.99,FreeWX 2.04,2013-02-02 14:56:00,
2013-02-02 10:01:00,14.4,-6.0,29.91,North,-999,0.0,0.0,39,0.00,,,-99.99,FreeWX 2.04,2013-02-02 15:01:00,
2013-02-02 10:06:00,14.9,-5.6,29.94,North,-999,0.0,0.0,39,0.00,,,-99.99,FreeWX 2.04,2013-02-02 15:06:00,
2013-02-02 10:11:00,15.3,-5.8,29.94,North,-999,0.0,0.0,38,0.00,,,-99.99,FreeWX 2.04,2013-02-02 15:11:00,
2013-02-02 10:16:00,15.1,-6.5,29.94,North,-999,0.0,0.0,37,0.00,,,-99.99,FreeWX 2.04,2013-02-02 15:16:00,
2013-02-02 10:21:00,15.3,-6.3,29.91,North,-999,0.0,0.0,37,0.00,,,-99.99,FreeWX 2.04,2013-02-02 15:21:00,
2013-02-02 10:26:00,15.6,-6.5,29.91,North,-999,0.0,6.3,36,0.00,,,-99.99,FreeWX 2.04,2013-02-02 15:26:00,
2013-02-02 10:31:00,15.6,-6.5,29.91,North,-999,0.0,3.1,36,0.00,,,-99.99,FreeWX 2.04,2013-02-02 15:31:00,
2013-02-02 10:36:00,15.8,-6.9,29.91,North,-999,0.0,0.0,35,0.00,,,-99.99,FreeWX 2.04,2013-02-02 15:36:00,
2013-02-02 10:41:00,16.0,-6.7,29.91,North,-999,0.0,0.0,35,0.00,,,-99.99,FreeWX 2.04,2013-02-02 15:41:00,
2013-02-02 10:46:00,15.8,-6.9,29.91,North,-999,0.0,0.0,35,0.00,,,-99.99,FreeWX 2.04,2013-02-02 15:46:00,
2013-02-02 10:51:00,16.5,-6.3,29.91,North,-999,0.0,6.9,35,0.00,,,-99.99,FreeWX 2.04,2013-02-02 15:51:00,
2013-02-02 10:56:00,16.9,-6.5,29.91,North,-999,0.0,0.0,34,0.00,,,-99.99,FreeWX 2.04,2013-02-02 15:56:00,
2013-02-02 11:01:00,17.2,-6.3,29.91,North,-999,0.0,4.5,34,0.00,,,-99.99,FreeWX 2.04,2013-02-02 16:01:00,
2013-02-02 11:06:00,17.6,-6.0,29.91,North,-999,0.0,0.0,34,0.00,,,-99.99,FreeWX 2.04,2013-02-02 16:06:00,
2013-02-02 11:11:00,17.4,-6.7,29.91,North,-999,0.0,5.8,33,0.00,,,-99.99,FreeWX 2.04,2013-02-02 16:11:00,
2013-02-02 11:16:00,17.8,-5.8,29.91,North,-999,0.0,0.0,34,0.00,,,-99.99,FreeWX 2.04,2013-02-02 16:16:00,
2013-02-02 11:21:00,18.5,-5.8,29.91,North,-999,0.0,0.0,33,0.00,,,-99.99,FreeWX 2.04,2013-02-02 16:21:00,
2013-02-02 11:26:00,19.0,-5.3,29.91,North,-999,0.0,0.0,33,0.00,,,-99.99,FreeWX 2.04,2013-02-02 16:26:00,
2013-02-02 11:31:00,19.2,-5.1,29.91,North,-999,0.0,0.0,33,0.00,,,-99.99,FreeWX 2.04,2013-02-02 16:31:00,
2013-02-02 11:36:00,19.0,-7.2,29.91,North,-999,0.0,4.9,30,0.00,,,-99.99,FreeWX 2.04,2013-02-02 16:36:00,
2013-02-02 11:41:00,19.6,-6.7,29.91,North,-999,0.0,4.5,30,0.00,,,-99.99,FreeWX 2.04,2013-02-02 16:41:00,
2013-02-02 11:46:00,19.6,-6.7,29.91,North,-999,0.0,3.6,30,0.00,,,-99.99,FreeWX 2.04,2013-02-02 16:46:00,
2013-02-02 11:51:00,19.6,-6.7,29.91,North,-999,0.0,2.7,30,0.00,,,-99.99,FreeWX 2.04,2013-02-02 16:51:00,
2013-02-02 11:56:00,19.0,-8.7,29.91,North,-999,0.0,3.6,28,0.00,,,-99.99,FreeWX 2.04,2013-02-02 16:56:00,
2013-02-02 12:01:00,18.5,-9.0,29.91,North,-999,0.0,5.4,28,0.00,,,-99.99,FreeWX 2.04,2013-02-02 17:01:00,
2013-02-02 12:06:00,18.5,-9.0,29.91,North,-999,0.0,3.6,28,0.00,,,-99.99,FreeWX 2.04,2013-02-02 17:06:00,
2013-02-02 12:11:00,18.0,-9.6,29.91,North,-999,0.0,4.0,28,0.00,,,-99.99,FreeWX 2.04,2013-02-02 17:11:00,
2013-02-02 12:21:00,18.0,-99.9,29.91,North,-999,0.0,0.0,-999,0.00,,,-99.99,FreeWX 2.04,2013-02-02 17:21:00,
2013-02-02 12:31:00,18.0,-9.6,29.91,North,-999,0.0,5.8,28,0.00,,,-99.99,FreeWX 2.04,2013-02-02 17:31:00,
2013-02-02 12:36:00,18.1,-9.4,29.88,North,-999,0.0,3.6,28,0.00,,,-99.99,FreeWX 2.04,2013-02-02 17:36:00,
2013-02-02 12:41:00,19.4,-8.3,29.88,North,-999,0.0,0.0,28,0.00,,,-99.99,FreeWX 2.04,2013-02-02 17:41:00,
2013-02-02 12:46:00,20.3,-7.6,29.88,North,-999,0.0,0.0,28,0.00,,,-99.99,FreeWX 2.04,2013-02-02 17:46:00,
2013-02-02 12:51:00,19.0,-10.8,29.88,North,-999,0.0,3.1,25,0.00,,,-99.99,FreeWX 2.04,2013-02-02 17:51:00,
2013-02-02 12:56:00,17.2,-11.7,29.88,North,-999,0.0,2.7,26,0.00,,,-99.99,FreeWX 2.04,2013-02-02 17:56:00,
2013-02-02 13:01:00,16.5,-12.3,29.88,North,-999,0.0,3.6,26,0.00,,,-99.99,FreeWX 2.04,2013-02-02 18:01:00,
2013-02-02 13:06:00,17.2,-11.7,29.88,North,-999,0.0,5.4,26,0.00,,,-99.99,FreeWX 2.04,2013-02-02 18:06:00,
2013-02-02 13:11:00,17.8,-11.2,29.88,North,-999,0.0,0.0,26,0.00,,,-99.99,FreeWX 2.04,2013-02-02 18:11:00,
2013-02-02 13:16:00,19.9,-7.8,29.88,North,-999,0.0,4.9,28,0.00,,,-99.99,FreeWX 2.04,2013-02-02 18:16:00,
2013-02-02 13:21:00,21.4,-8.9,29.88,North,-999,0.0,4.0,25,0.00,,,-99.99,FreeWX 2.04,2013-02-02 18:21:00,
2013-02-02 13:26:00,22.8,-7.6,29.88,North,-999,0.0,6.7,25,0.00,,,-99.99,FreeWX 2.04,2013-02-02 18:26:00,
2013-02-02 13:31:00,22.5,-8.0,29.88,North,-999,0.0,6.9,25,0.00,,,-99.99,FreeWX 2.04,2013-02-02 18:31:00,
2013-02-02 13:36:00,22.3,-8.1,29.88,North,-999,0.0,4.9,25,0.00,,,-99.99,FreeWX 2.04,2013-02-02 18:36:00,
2013-02-02 13:41:00,22.3,-8.1,29.88,North,-999,0.0,5.8,25,0.00,,,-99.99,FreeWX 2.04,2013-02-02 18:41:00,
2013-02-02 13:46:00,21.6,-8.7,29.88,North,-999,0.0,5.8,25,0.00,,,-99.99,FreeWX 2.04,2013-02-02 18:46:00,
2013-02-02 13:51:00,19.9,-10.1,29.88,ENE,76,1.0,6.3,25,0.00,,,-99.99,FreeWX 2.04,2013-02-02 18:51:00,
2013-02-02 13:56:00,19.4,-10.7,29.88,North,-999,0.0,3.6,25,0.00,,,-99.99,FreeWX 2.04,2013-02-02 18:56:00,
2013-02-02 14:01:00,19.8,-10.3,29.88,North,-999,0.0,0.0,25,0.00,,,-99.99,FreeWX 2.04,2013-02-02 19:01:00,
2013-02-02 14:06:00,22.8,-7.6,29.88,North,-999,0.0,4.9,25,0.00,,,-99.99,FreeWX 2.04,2013-02-02 19:06:00,
2013-02-02 14:11:00,23.4,-7.2,29.88,North,-999,0.0,6.7,25,0.00,,,-99.99,FreeWX 2.04,2013-02-02 19:11:00,
2013-02-02 14:16:00,22.5,-8.0,29.88,North,-999,0.0,0.0,25,0.00,,,-99.99,FreeWX 2.04,2013-02-02 19:16:00,
2013-02-02 14:21:00,21.0,-9.2,29.88,North,-999,0.0,0.0,25,0.00,,,-99.99,FreeWX 2.04,2013-02-02 19:21:00,
2013-02-02 14:26:00,19.4,-12.3,29.88,North,-999,0.0,5.4,23,0.00,,,-99.99,FreeWX 2.04,2013-02-02 19:26:00,
2013-02-02 14:31:00,18.3,-13.2,29.88,North,-999,0.0,0.0,23,0.00,,,-99.99,FreeWX 2.04,2013-02-02 19:31:00,
2013-02-02 14:36:00,19.2,-10.8,29.88,North,-999,0.0,4.0,25,0.00,,,-99.99,FreeWX 2.04,2013-02-02 19:36:00,
2013-02-02 14:41:00,19.4,-10.7,29.88,North,-999,0.0,0.0,25,0.00,,,-99.99,FreeWX 2.04,2013-02-02 19:41:00,
2013-02-02 14:46:00,19.2,-10.8,29.88,North,-999,0.0,0.0,25,0.00,,,-99.99,FreeWX 2.04,2013-02-02 19:46:00,
2013-02-02 14:51:00,19.4,-10.7,29.88,North,-999,0.0,0.0,25,0.00,,,-99.99,FreeWX 2.04,2013-02-02 19:51:00,
2013-02-02 14:56:00,20.1,-9.9,29.88,North,-999,0.0,0.0,25,0.00,,,-99.99,FreeWX 2.04,2013-02-02 19:56:00,
2013-02-02 15:01:00,21.2,-9.0,29.88,North,-999,0.0,0.0,25,0.00,,,-99.99,FreeWX 2.04,2013-02-02 20:01:00,
2013-02-02 15:06:00,22.1,-8.3,29.88,North,-999,0.0,0.0,25,0.00,,,-99.99,FreeWX 2.04,2013-02-02 20:06:00,
2013-02-02 15:11:00,22.5,-8.0,29.88,North,-999,0.0,0.0,25,0.00,,,-99.99,FreeWX 2.04,2013-02-02 20:11:00,
2013-02-02 15:16:00,21.7,-8.7,29.88,North,-999,0.0,3.1,25,0.00,,,-99.99,FreeWX 2.04,2013-02-02 20:16:00,
2013-02-02 15:21:00,20.5,-9.8,29.88,North,-999,0.0,0.0,25,0.00,,,-99.99,FreeWX 2.04,2013-02-02 20:21:00,
2013-02-02 15:26:00,19.6,-10.5,29.88,North,-999,0.0,0.0,25,0.00,,,-99.99,FreeWX 2.04,2013-02-02 20:26:00,
2013-02-02 15:31:00,19.4,-10.7,29.88,North,-999,0.0,3.1,25,0.00,,,-99.99,FreeWX 2.04,2013-02-02 20:31:00,
2013-02-02 15:36:00,20.3,-9.8,29.88,North,-999,0.0,0.0,25,0.00,,,-99.99,FreeWX 2.04,2013-02-02 20:36:00,
2013-02-02 15:41:00,20.8,-9.4,29.88,North,-999,0.0,5.4,25,0.00,,,-99.99,FreeWX 2.04,2013-02-02 20:41:00,
2013-02-02 15:46:00,20.8,-9.4,29.88,North,-999,0.0,4.5,25,0.00,,,-99.99,FreeWX 2.04,2013-02-02 20:46:00,
2013-02-02 15:51:00,20.3,-9.8,29.88,North,-999,0.0,3.1,25,0.00,,,-99.99,FreeWX 2.04,2013-02-02 20:51:00,
2013-02-02 15:56:00,19.4,-10.7,29.88,North,-999,0.0,0.0,25,0.00,,,-99.99,FreeWX 2.04,2013-02-02 20:56:00,
2013-02-02 16:01:00,18.9,-11.0,29.88,North,-999,0.0,0.0,25,0.00,,,-99.99,FreeWX 2.04,2013-02-02 21:01:00,
2013-02-02 16:06:00,18.3,-10.8,29.88,North,-999,0.0,0.0,26,0.00,,,-99.99,FreeWX 2.04,2013-02-02 21:06:00,
2013-02-02 16:11:00,18.0,-11.0,29.88,North,-999,0.0,0.0,26,0.00,,,-99.99,FreeWX 2.04,2013-02-02 21:11:00,
2013-02-02 16:16:00,18.0,-11.0,29.88,North,-999,0.0,0.0,26,0.00,,,-99.99,FreeWX 2.04,2013-02-02 21:16:00,
2013-02-02 16:21:00,18.0,-11.0,29.88,North,-999,0.0,0.0,26,0.00,,,-99.99,FreeWX 2.04,2013-02-02 21:21:00,
2013-02-02 16:26:00,18.3,-10.8,29.88,North,-999,0.0,0.0,26,0.00,,,-99.99,FreeWX 2.04,2013-02-02 21:26:00,
2013-02-02 16:31:00,18.9,-11.0,29.88,North,-999,0.0,0.0,25,0.00,,,-99.99,FreeWX 2.04,2013-02-02 21:31:00,
2013-02-02 16:36:00,18.9,-11.0,29.88,North,-999,0.0,0.0,25,0.00,,,-99.99,FreeWX 2.04,2013-02-02 21:36:00,
2013-02-02 16:41:00,18.3,-10.8,29.88,North,-999,0.0,0.0,26,0.00,,,-99.99,FreeWX 2.04,2013-02-02 21:41:00,
2013-02-02 16:46:00,17.8,-11.2,29.88,North,-999,0.0,0.0,26,0.00,,,-99.99,FreeWX 2.04,2013-02-02 21:46:00,
2013-02-02 16:51:00,17.1,-11.9,29.88,North,-999,0.0,0.0,26,0.00,,,-99.99,FreeWX 2.04,2013-02-02 21:51:00,
2013-02-02 16:56:00,16.5,-12.3,29.88,North,-999,0.0,0.0,26,0.00,,,-99.99,FreeWX 2.04,2013-02-02 21:56:00,
2013-02-02 17:01:00,16.0,-12.8,29.88,North,-999,0.0,0.0,26,0.00,,,-99.99,FreeWX 2.04,2013-02-02 22:01:00,
2013-02-02 17:06:00,15.6,-13.2,29.88,North,-999,0.0,0.0,26,0.00,,,-99.99,FreeWX 2.04,2013-02-02 22:06:00,
2013-02-02 17:11:00,15.1,-13.5,29.88,North,-999,0.0,0.0,26,0.00,,,-99.99,FreeWX 2.04,2013-02-02 22:11:00,
2013-02-02 17:16:00,14.5,-13.4,29.88,North,-999,0.0,0.0,27,0.00,,,-99.99,FreeWX 2.04,2013-02-02 22:16:00,
2013-02-02 17:21:00,14.2,-13.5,29.88,North,-999,0.0,0.0,27,0.00,,,-99.99,FreeWX 2.04,2013-02-02 22:21:00,
2013-02-02 17:26:00,13.6,-99.9,29.88,North,-999,0.0,0.0,-999,0.00,,,-99.99,FreeWX 2.04,2013-02-02 22:26:00,
2013-02-02 17:31:00,13.3,-99.9,29.88,North,-999,0.0,0.0,-999,0.00,,,-99.99,FreeWX 2.04,2013-02-02 22:31:00,
2013-02-02 17:36:00,13.1,-99.9,29.88,North,-999,0.0,0.0,-999,0.00,,,-99.99,FreeWX 2.04,2013-02-02 22:36:00,
2013-02-02 17:41:00,12.7,-99.9,29.88,North,-999,0.0,0.0,-999,0.00,,,-99.99,FreeWX 2.04,2013-02-02 22:41:00,
2013-02-02 17:46:00,12.7,-99.9,29.88,North,-999,0.0,0.0,-999,0.00,,,-99.99,FreeWX 2.04,2013-02-02 22:46:00,
2013-02-02 17:51:00,12.7,-99.9,29.91,North,-999,0.0,0.0,-999,0.00,,,-99.99,FreeWX 2.04,2013-02-02 22:51:00,
2013-02-02 17:56:00,12.7,-99.9,29.91,North,-999,0.0,0.0,-999,0.00,,,-99.99,FreeWX 2.04,2013-02-02 22:56:00,
2013-02-02 18:01:00,12.7,-99.9,29.91,North,-999,0.0,0.0,-999,0.00,,,-99.99,FreeWX 2.04,2013-02-02 23:01:00,
2013-02-02 18:06:00,12.7,-99.9,29.91,North,-999,0.0,0.0,-999,0.00,,,-99.99,FreeWX 2.04,2013-02-02 23:06:00,
2013-02-02 18:11:00,12.6,-99.9,29.91,North,-999,0.0,0.0,-999,0.00,,,-99.99,FreeWX 2.04,2013-02-02 23:11:00,
2013-02-02 18:16:00,12.4,-99.9,29.91,North,-999,0.0,0.0,-999,0.00,,,-99.99,FreeWX 2.04,2013-02-02 23:16:00,
2013-02-02 18:21:00,12.4,-99.9,29.91,North,-999,0.0,0.0,-999,0.00,,,-99.99,FreeWX 2.04,2013-02-02 23:21:00,
2013-02-02 18:26:00,12.0,-99.9,29.91,North,-999,0.0,0.0,-999,0.00,,,-99.99,FreeWX 2.04,2013-02-02 23:26:00,
2013-02-02 18:31:00,11.8,-99.9,29.91,North,-999,0.0,0.0,-999,0.00,,,-99.99,FreeWX 2.04,2013-02-02 23:31:00,
2013-02-02 18:36:00,11.5,-99.9,29.91,North,-999,0.0,0.0,-999,0.00,,,-99.99,FreeWX 2.04,2013-02-02 23:36:00,
2013-02-02 18:42:00,11.1,-99.9,29.91,North,-999,0.0,0.0,-999,0.00,,,-99.99,FreeWX 2.04,2013-02-02 23:42:00,
2013-02-02 18:47:00,10.8,-99.9,29.91,North,-999,0.0,0.0,-999,0.00,,,-99.99,FreeWX 2.04,2013-02-02 23:47:00,
2013-02-02 18:52:00,10.6,-99.9,29.91,North,-999,0.0,0.0,-999,0.00,,,-99.99,FreeWX 2.04,2013-02-02 23:52:00,
2013-02-02 18:57:00,10.4,-99.9,29.91,North,-999,0.0,0.0,-999,0.00,,,-99.99,FreeWX 2.04,2013-02-02 23:57:00,
2013-02-02 19:02:00,10.4,-99.9,29.91,North,-999,0.0,0.0,-999,0.00,,,-99.99,FreeWX 2.04,2013-02-03 00:02:00,
2013-02-02 19:07:00,10.2,-99.9,29.91,North,-999,0.0,0.0,-999,0.00,,,-99.99,FreeWX 2.04,2013-02-03 00:07:00,
2013-02-02 19:12:00,10.0,-99.9,29.91,North,-999,0.0,0.0,-999,0.00,,,-99.99,FreeWX 2.04,2013-02-03 00:12:00,
2013-02-02 19:17:00,9.9,-99.9,29.91,North,-999,0.0,0.0,-999,0.00,,,-99.99,FreeWX 2.04,2013-02-03 00:17:00,
2013-02-02 19:22:00,9.9,-99.9,29.91,North,-999,0.0,0.0,-999,0.00,,,-99.99,FreeWX 2.04,2013-02-03 00:22:00,
2013-02-02 19:27:00,9.7,-99.9,29.91,North,-999,0.0,0.0,-999,0.00,,,-99.99,FreeWX 2.04,2013-02-03 00:27:00,
2013-02-02 19:32:00,9.5,-99.9,29.91,North,-999,0.0,0.0,-999,0.00,,,-99.99,FreeWX 2.04,2013-02-03 00:32:00,
2013-02-02 19:37:00,9.1,-99.9,29.91,North,-999,0.0,0.0,-999,0.00,,,-99.99,FreeWX 2.04,2013-02-03 00:37:00,
2013-02-02 19:42:00,9.0,-99.9,29.91,North,-999,0.0,0.0,-999,0.00,,,-99.99,FreeWX 2.04,2013-02-03 00:42:00,
2013-02-02 19:47:00,8.8,-99.9,29.91,North,-999,0.0,0.0,-999,0.00,,,-99.99,FreeWX 2.04,2013-02-03 00:47:00,
2013-02-02 19:52:00,8.6,-99.9,29.91,North,-999,0.0,0.0,-999,0.00,,,-99.99,FreeWX 2.04,2013-02-03 00:52:00,
2013-02-02 19:57:00,8.4,-99.9,29.91,North,-999,0.0,0.0,-999,0.00,,,-99.99,FreeWX 2.04,2013-02-03 00:57:00,
2013-02-02 20:02:00,8.4,-99.9,29.91,North,-999,0.0,0.0,-999,0.00,,,-99.99,FreeWX 2.04,2013-02-03 01:02:00,
2013-02-02 20:07:00,8.4,-99.9,29.94,North,-999,0.0,0.0,-999,0.00,,,-99.99,FreeWX 2.04,2013-02-03 01:07:00,
2013-02-02 20:12:00,8.4,-99.9,29.94,North,-999,0.0,0.0,-999,0.00,,,-99.99,FreeWX 2.04,2013-02-03 01:12:00,
2013-02-02 20:17:00,8.4,-99.9,29.94,North,-999,0.0,0.0,-999,0.00,,,-99.99,FreeWX 2.04,2013-02-03 01:17:00,
2013-02-02 20:22:00,8.2,-99.9,29.94,North,-999,0.0,0.0,-999,0.00,,,-99.99,FreeWX 2.04,2013-02-03 01:22:00,
2013-02-02 20:27:00,8.1,-99.9,29.94,North,-999,0.0,0.0,-999,0.00,,,-99.99,FreeWX 2.04,2013-02-03 01:27:00,
2013-02-02 20:32:00,7.9,-99.9,29.94,North,-999,0.0,0.0,-999,0.00,,,-99.99,FreeWX 2.04,2013-02-03 01:32:00,
2013-02-02 20:37:00,7.9,-99.9,29.94,North,-999,0.0,0.0,-999,0.00,,,-99.99,FreeWX 2.04,2013-02-03 01:37:00,